Poplar Bluff, MO

2:36 PM CDT on April 27, 2017 (GMT -0500)
Poplar Bluff Municipal

Weather History for KPOF - April, 2013

Change the Weather History Date:

Monday, April 8, 2013

  Actual Average Record
Temperature  
Mean Temperature 68 °F -  
Max Temperature 75 °F 68 °F 86 °F (1977)
Min Temperature 60 °F 44 °F 25 °F (2007)
Cooling Degree Days 2    
Growing Degree Days 18 (Base 50)    
Moisture  
Dew Point 56 °F    
Average Humidity 68    
Maximum Humidity 82    
Minimum Humidity 55    
Precipitation  
Precipitation 0.01 in - - ()
Sea Level Pressure  
Sea Level Pressure 29.86 in    
Wind  
Wind Speed 9 mph (South)    
Max Wind Speed 20 mph    
Max Gust Speed 26 mph    
Visibility 10 miles    
Events Rain , Thunderstorm    
Averages and records for this station are not official NWS values.
T = Trace of Precipitation, MM = Missing Value Source: NWS Daily Summary

Daily Weather History Graph

Daily Weather History Graph

Search for Another Location

Airport or City:

Trip Planner

Search our weather history database for the weather conditions in past years. The results will help you decide how hot, cold, wet, or windy it might be!

Date:

Astronomy

Apr. 08, 2013 Rise Set
Actual Time 6:36 AM CDT 7:29 PM CDT
Civil Twilight 6:10 AM CDT 7:56 PM CDT
Nautical Twilight 5:39 AM CDT 8:27 PM CDT
Astronomical Twilight 5:06 AM CDT 8:59 PM CDT
Moon 5:24 AM CDT (4/8) 6:05 PM CDT (4/8)
Length of Visible Light 13h 46m
Length of Day
12h 53m
Waning Crescent, 3% of the Moon is Illuminated
Apr 8
Waning Crescent
Apr 10
New
Apr 18
First Quarter
Apr 25
Full
May 2
Last Quarter

Hourly Weather History & Observations

Time (CDT) Temp. Dew Point Humidity Pressure Visibility Wind Dir Wind Speed Gust Speed Precip Events Conditions
12:53 AM 62.1 °F 53.1 °F 72% 29.88 in 10.0 mi South 3.5 mph - N/A   Overcast
1:53 AM 62.1 °F 53.1 °F 72% 29.87 in 10.0 mi SSE 4.6 mph - N/A   Overcast
2:53 AM 60.1 °F 53.1 °F 78% 29.83 in 10.0 mi SSE 4.6 mph - N/A   Overcast
3:53 AM 62.1 °F 52.0 °F 70% 29.82 in 10.0 mi South 4.6 mph - N/A   Overcast
4:53 AM 64.0 °F 52.0 °F 65% 29.82 in 10.0 mi South 10.4 mph - N/A   Overcast
6:53 AM 63.0 °F 54.0 °F 72% 29.87 in 10.0 mi South 6.9 mph - N/A   Overcast
7:53 AM 64.9 °F 55.9 °F 73% 29.87 in 10.0 mi South 13.8 mph - N/A   Overcast
8:25 AM 62.6 °F 55.4 °F 77% 29.88 in 9.0 mi South 11.5 mph - 0.01 in Rain , Thunderstorm Light Rain
8:40 AM 62.6 °F 57.2 °F 82% 29.89 in 10.0 mi South 12.7 mph - 0.01 in   Scattered Clouds
8:53 AM 63.0 °F 57.0 °F 81% 29.88 in 10.0 mi South 10.4 mph - 0.01 in   Partly Cloudy
9:53 AM 64.9 °F 57.0 °F 75% 29.89 in 10.0 mi SSW 12.7 mph - N/A   Clear
10:53 AM 66.9 °F 57.0 °F 70% 29.86 in 10.0 mi South 18.4 mph 24.2 mph N/A   Scattered Clouds
11:53 AM 70.0 °F 57.0 °F 63% 29.84 in 10.0 mi South 19.6 mph 26.5 mph N/A   Clear
12:53 PM 73.9 °F 57.9 °F 57% 29.86 in 10.0 mi South 17.3 mph - N/A   Overcast
1:53 PM 73.9 °F 57.0 °F 55% 29.85 in 10.0 mi SSW 13.8 mph 23.0 mph N/A   Overcast
2:53 PM 75.0 °F 57.9 °F 55% 29.84 in 10.0 mi SSW 12.7 mph - N/A   Overcast
3:53 PM 75.0 °F 57.9 °F 55% 29.82 in 10.0 mi SSW 13.8 mph 23.0 mph N/A   Overcast
4:53 PM 73.9 °F 57.0 °F 55% 29.83 in 10.0 mi South 19.6 mph 25.3 mph N/A   Overcast
5:53 PM 72.0 °F 57.9 °F 61% 29.84 in 10.0 mi South 8.1 mph - N/A   Overcast
6:53 PM 71.1 °F 57.9 °F 63% 29.85 in 10.0 mi South 6.9 mph - N/A   Overcast
7:53 PM 70.0 °F 57.9 °F 65% 29.85 in 10.0 mi SSE 5.8 mph - N/A   Overcast
8:53 PM 69.1 °F 57.9 °F 68% 29.86 in 9.0 mi South 6.9 mph - N/A   Overcast
9:53 PM 70.0 °F 57.0 °F 63% 29.88 in 10.0 mi South 8.1 mph - N/A   Clear
10:53 PM 64.9 °F 55.9 °F 73% 29.88 in 10.0 mi SSE 6.9 mph - N/A   Clear
11:53 PM 63.0 °F 55.9 °F 78% 29.87 in 10.0 mi SE 4.6 mph - N/A   Clear